This is the latest recevied weather packets stored in our database for station/object N2PPN. If no packets are shown the sender has not sent any weather packets the latest 10 day(s).
| Time | Temp. | Humidity | Pressure | Rain* | Wind** | Luminosity | Snow |
|---|---|---|---|---|---|---|---|
| 1777984559 | 16.11° C | 82% | 1014.4 hPa | 0 mm | - | 290 W/m² | - |
| 1777984256 | 15.56° C | 83% | 1014.5 hPa | 0 mm | - | 276 W/m² | - |
| 1777983953 | 15.56° C | 84% | 1014.5 hPa | 0 mm | - | 262 W/m² | - |
| 1777983650 | 15° C | 86% | 1014.5 hPa | 0 mm | - | 248 W/m² | - |
| 1777983346 | 14.44° C | 87% | 1014.5 hPa | 0 mm | - | 239 W/m² | - |
| 1777983043 | 14.44° C | 87% | 1014.4 hPa | 0 mm | - | 77 W/m² | - |
| 1777982734 | 15° C | 87% | 1014.5 hPa | 0 mm | - | 128 W/m² | - |
| 1777982429 | 14.44° C | 88% | 1014.6 hPa | 0 mm | - | 114 W/m² | - |
| 1777982125 | 13.89° C | 89% | 1014.7 hPa | 0 mm | - | 132 W/m² | - |
| 1777981823 | 14.44° C | 89% | 1014.7 hPa | 0 mm | - | 111 W/m² | - |
| 1777981520 | 13.89° C | 89% | 1014.6 hPa | 0 mm | - | 100 W/m² | - |
| 1777981215 | 13.89° C | 90% | 1014.6 hPa | 0 mm | - | 86 W/m² | - |
| 1777980912 | 13.89° C | 90% | 1014.7 hPa | 0 mm | - | 94 W/m² | - |
| 1777980608 | 13.89° C | 90% | 1014.8 hPa | 0 mm | - | 82 W/m² | - |
| 1777980304 | 13.33° C | 91% | 1014.6 hPa | 0 mm | - | 91 W/m² | - |
| 1777980002 | 13.89° C | 91% | 1014.9 hPa | 0 mm | - | 72 W/m² | - |
| 1777979696 | 13.33° C | 91% | 1014.7 hPa | 0 mm | - | 105 W/m² | - |
| 1777979393 | 13.33° C | 92% | 1014.7 hPa | 0 mm | - | 89 W/m² | - |
| 1777979090 | 12.78° C | 93% | 1014.8 hPa | 0 mm | - | 78 W/m² | - |
| 1777978786 | 12.78° C | 93% | 1014.5 hPa | 0 mm | - | 78 W/m² | - |
| 1777978483 | 12.78° C | 94% | 1014.7 hPa | 0 mm | - | 57 W/m² | - |
| 1777978179 | 12.22° C | 95% | 1014.6 hPa | 0 mm | - | 38 W/m² | - |
| 1777977877 | 12.22° C | 95% | 1014.5 hPa | 0 mm | - | 35 W/m² | - |
| 1777977572 | 12.22° C | 96% | 1014.4 hPa | 0 mm | - | 28 W/m² | - |
| 1777977270 | 11.67° C | 96% | 1014.2 hPa | 0 mm | - | 25 W/m² | - |
* Rain latest hour (hover to see other rain measurements)
** Current wind speed in m/s (hover to see current wind gust speed)